Location: Beuerbach
(48.1459°N, 10.9174°E)
Time: 04:02:34
(UTC+00:00)

CZ-2C R/B - Pass Details

Date: 23 May 2024
Orbit: 783 x 868 km, 98.3° (Epoch: 13 June)

Event Time Altitude Azimuth Distance (km) Brightness Sun altitude
Exits shadow 00:47:46 11° 145° (SE) 2,301 4.7 -18.0°
Maximum altitude 00:52:40 54° 70° (ENE) 954 3.2 -17.7°
Drops below altitude 10° 00:57:43 10° 354° (N) 2,362 5.9 -17.3°
Sets 01:00:06 0° 350° (N) 3,302 6.7 -17.2°
